Location: Holyhead Bay
(53.3667°N, 4.6667°W)
Time: 22:57:17
(UTC+00:00)

Cosmos 1408 Rocket - Pass Details

Date: 13 April 2021
Orbit: 601 x 631 km, 82.6° (Epoch: 16 May)

Event Time Altitude Azimuth Distance (km) Brightness Sun altitude
Rises 23:52:48 0° 340° (NNW) 2,866 8.2 -27.0°
Reaches altitude 10° 23:55:16 10° 328° (NNW) 1,957 6.9 -27.0°
Enters shadow 23:58:21 25° 284° (WNW) 1,220 5.2 -27.1°
